Погода в Моргунове

Россия / Калининградская область     54°49′06″N   20°47′35″E
В апреле 2022 года жителям России запретили посещать сайт meteo.paraplan.net по решению Генеральной прокуратуры. Аудитория сайта уменьшилась в 10 раз. Владельцы сайта не видят смысла в поддержке погодного сервера в таких условиях. Сайт будет закрыт в октябре.
темп.,
°C
ветер,
м/с
пор.,
м/с
влажн.,
%
обл.,
%
осадки,
мм/ч
давл.,
гПа
погр.,
м
30 сентября, пт
пт3023:00+8юз38895 0.0 1007135
02:00+8зюз34915 0.0 100967
05:00+7ююз349518 0.0 101056
08:00+8юз258955 0.0 1011142
11:00+14юз346641 0.0 1013849
14:00+15зюз335366 0.3 10131492
17:00+13ссз116499 0.1 101335
20:00+11вюв117163 0.2 101415
1 октября, сб
сб123:00+9ююв237353 0.0 101442
02:00+8ю2277100 0.0 101323
05:00+8ююз2271100 0.0 101342
08:00+9ююз257094 0.0 1013151
11:00+14ююз46545 0.0 1012847
14:00+17ююз564733 0.0 10101760
17:00+15ю4755100 0.0 1009312
20:00+13ююв41161100 0.0 1008375
2 октября, вс
вс223:00+11ююв41170100 0.1 1007303
02:00+10ююз3686100 0.3 1007174
05:00+10ю3696100 1.3 1006309
08:00+10ююз3895100 1.6 1006400
11:00+12з61291100 2.9 1006761
14:00+13зсз7118192 5.4 1008891
17:00+13зсз598340 0.8 1009635
20:00+10з39945 2.8 1010245
3 октября, пн
пн323:00+9зюз38955 0.4 1010175
02:00+9з38945 0.6 1010163
05:00+9з39954 0.1 1010208
08:00+10з399594 0.4 1010304
11:00+13зсз6979100 1.1 1010985
14:00+14зсз7116812 1.7 10101349
17:00+13зсз61177100 0.3 1009925
20:00+10зсз310897 0.4 1009215
4 октября, вт
вт423:00+9сз498825 0.0 1009184
02:00+10зсз410845 0.1 1010321
05:00+9сз4109280 0.9 1010238
08:00+11сз511820 1.9 1011480
11:00+13ссз79685 0.4 10131178
14:00+14сз69585 0.6 10141248
17:00+13зсз48694 0.1 1015567
20:00+9зюз359033 0.1 101672